Regional Weather Roundup
Issued by NWS

Home | Current Version | Previous Version | Text Only | Print | Product List | Glossary Off
Versions: 1 2 3 4 5 6 7 8 9 10 11 12 13 14 15 16 17 18 19 20 21 22 23 24 25 26 27 28 29 30 31 32 33 34 35 36 37 38 39 40 41 42 43 44 45 46 47 48 49 50

000
ASUS43 KFSD 111310
RWRSD

WEATHER ROUNDUP FOR SOUTH DAKOTA
NATIONAL WEATHER SERVICE SIOUX FALLS SD
800 AM CDT FRI JUL 11 2014

NOTE: "FAIR" INDICATES FEW OR NO CLOUDS BELOW 12,000 FEET WITH NO
SIGNIFICANT WEATHER AND/OR OBSTRUCTIONS TO VISIBILITY.


SDZ001>005-009-010-012>017-111400-
NORTHWEST AND NORTH CENTRAL SOUTH DAKOTA

CITY           SKY/WX    TMP DP  RH WIND       PRES   REMARKS
BUFFALO          N/A     67  63  87 N3        29.93R
FAITH            N/A     70  67  90 NW5       29.92R
MOBRIDGE       SUNNY     69  66  90 CALM      29.85S
$$

SDZ012>016-024>037-041>051-057-063-072>074-111400-
SOUTHWEST AND SOUTH CENTRAL SOUTH DAKOTA

CITY           SKY/WX    TMP DP  RH WIND       PRES   REMARKS
RAPID CTY ARPT MOSUNNY   71  63  75 NW6       29.97R
PIERRE         SUNNY     72  66  81 W6        29.86S
CUSTER         SUNNY     66  54  65 NW5       30.12R
ELLSWORTH AFB  MOSUNNY   69  63  80 W3        29.98R
PHILIP         SUNNY     69  63  81 SW5       29.91R
PINE RIDGE     PTSUNNY   66  64  93 CALM      29.98R
WINNER         FAIR      73  65  75 S3        29.90R
$$

SDZ004>011-016>023-039-040-111400-
NORTHEAST SOUTH DAKOTA

CITY           SKY/WX    TMP DP  RH WIND       PRES   REMARKS
ABERDEEN       SUNNY     70  68  93 S3        29.85R
WATERTOWN      SUNNY     72  67  84 S12       29.88S
SISSETON         N/A     75  69  81 W15       29.83R
$$

SDZ017-020-022-023-036>040-048>070-111400-
SOUTHEAST SOUTH DAKOTA

CITY           SKY/WX    TMP DP  RH WIND       PRES   REMARKS
SIOUX FALLS    PTSUNNY   71  67  87 SW6       29.90F
HURON          SUNNY     74  67  78 S9        29.85R
CHAMBERLAIN    MOSUNNY   73  65  76 W7        29.87R
MITCHELL       MOSUNNY   73  69  87 S8        29.87R
YANKTON        CLOUDY    70  68  94 SW10      29.89F
$$

ABBREVIATIONS USED IN REMARKS
   TC - TEMPERATURE IN CELSIUS
  WCI - WIND CHILL INDEX
   HX - HEAT INDEX
  VSB - VISIBILITY




USA.gov is the U.S. government's official web portal to all federal, state and local government web resources and services.